Wetterdaten Winter 2014/2015

Datum T max T min Regen
01.12.2014 4.1 °C 2.7 °C 0.2 mm
02.12.2014 3.1 °C 1.8 °C 2 mm
03.12.2014 2.8 °C 1.6 °C 0.4 mm
04.12.2014 3.8 °C 2.6 °C 0 mm
05.12.2014 3.9 °C 2.7 °C 0.2 mm
06.12.2014 4.3 °C 2.7 °C 0 mm
07.12.2014 3.8 °C 2.1 °C 0 mm
08.12.2014 5.3 °C -0.4 °C 1.6 mm
09.12.2014 2.3 °C -1.4 °C 0 mm
10.12.2014 4 °C -0.7 °C 1.4 mm
11.12.2014 7.9 °C 4 °C 0.2 mm
12.12.2014 9.8 °C 5.1 °C 0 mm
13.12.2014 11.6 °C 7.3 °C 0.4 mm
14.12.2014 8.5 °C 7 °C 4.4 mm
15.12.2014 7.9 °C 3 °C 0.2 mm
16.12.2014 6.3 °C 2.2 °C 1.8 mm
17.12.2014 6 °C 1.5 °C 3.6 mm
18.12.2014 12.4 °C 6 °C 2.6 mm
19.12.2014 11.8 °C 8.2 °C 8.2 mm
20.12.2014 8.2 °C 4.2 °C 0.8 mm
21.12.2014 7.3 °C 3.4 °C 0 mm
22.12.2014 8.8 °C 6 °C 0 mm
23.12.2014 9.1 °C 0.2 °C 0 mm
24.12.2014 9.7 °C -1.3 °C 0 mm
25.12.2014 8.2 °C 3.6 °C 1.6 mm
26.12.2014 3.9 °C -0.4 °C 1.4 mm
27.12.2014 1.8 °C -0.8 °C 7.6 mm
28.12.2014 0.7 °C -10.1 °C 2.4 mm
29.12.2014 -2.2 °C -11.4 °C 0.6 mm
30.12.2014 0.2 °C -2.3 °C 2 mm
31.12.2014 0.9 °C -0.2 °C 0 mm
01.01.2015 1.4 °C 0.4 °C 0 mm
02.01.2015 3.8 °C -1.8 °C 4 mm
03.01.2015 8.7 °C -0.6 °C 17.6 mm
04.01.2015 3.8 °C 0.7 °C 0 mm
05.01.2015 3.9 °C -1.7 °C 0 mm
06.01.2015 2.8 °C -4.2 °C 0 mm
07.01.2015 2.9 °C -2 °C 0.4 mm
08.01.2015 8.9 °C -0.3 °C 1 mm
09.01.2015 12.2 °C 5.6 °C 2.2 mm
10.01.2015 15.4 °C 9.3 °C 4.6 mm
11.01.2015 9.2 °C 2.5 °C 9.2 mm
12.01.2015 7.2 °C 1.3 °C 0 mm
13.01.2015 14.3 °C 0.7 °C 0 mm
14.01.2015 10.9 °C 2.7 °C 3.6 mm
15.01.2015 9.1 °C 2.6 °C 0 mm
16.01.2015 9.1 °C 4.8 °C 9.6 mm
17.01.2015 5.2 °C 1.9 °C 6 mm
18.01.2015 3 °C -1.2 °C 0.2 mm
19.01.2015 3.1 °C -1.7 °C 2.2 mm
20.01.2015 1.5 °C -1.3 °C 3 mm
21.01.2015 1.9 °C -1.2 °C 0.4 mm
22.01.2015 1.4 °C 0.3 °C 0.2 mm
23.01.2015 1.1 °C 0.2 °C 0 mm
24.01.2015 2.2 °C -0.2 °C 1 mm
25.01.2015 2.5 °C -0.1 °C 0 mm
26.01.2015 1.7 °C 0.6 °C 4.6 mm
27.01.2015 3.7 °C 1.3 °C 0.2 mm
28.01.2015 4.6 °C 1.3 °C 0.8 mm
29.01.2015 4.7 °C 0.2 °C 1.8 mm
30.01.2015 4.2 °C -0.3 °C 8.2 mm
31.01.2015 2.7 °C -1.9 °C 1 mm
01.02.2015 1.7 °C -1.1 °C 1 mm
02.02.2015 2.2 °C -1.9 °C 0.4 mm
03.02.2015 1.6 °C -5.1 °C 0 mm
04.02.2015 -0.7 °C -6.9 °C 0 mm
05.02.2015 0.2 °C -2.1 °C 0 mm
06.02.2015 1.3 °C -3.8 °C 0 mm
07.02.2015 0.9 °C -6.4 °C 0 mm
08.02.2015 3.2 °C -3.8 °C 0 mm
09.02.2015 3 °C -2.1 °C 0.2 mm
10.02.2015 4.4 °C 0.9 °C 0 mm
11.02.2015 5.8 °C -0.8 °C 0 mm
12.02.2015 6.6 °C -3.6 °C 0 mm
13.02.2015 7.8 °C -3.9 °C 0 mm
14.02.2015 8.4 °C -0.9 °C 0 mm
15.02.2015 2.7 °C -3.7 °C 0 mm
16.02.2015 3.3 °C -1.8 °C 0 mm
17.02.2015 0.4 °C -1.8 °C 0 mm
18.02.2015 1.6 °C -0.2 °C 0 mm
19.02.2015 3.2 °C -3 °C 0 mm
20.02.2015 13.8 °C -3.3 °C 0 mm
21.02.2015 7.4 °C 2.7 °C 0.8 mm
22.02.2015 5.2 °C -0.4 °C 0 mm
23.02.2015 6.1 °C -1.3 °C 2.6 mm
24.02.2015 6.4 °C 1.7 °C 2.2 mm
25.02.2015 8.3 °C -0.1 °C 0.4 mm
26.02.2015 10.2 °C -1.1 °C 0 mm
27.02.2015 3.8 °C 2.4 °C 7.4 mm
28.02.2015 7.3 °C 0.9 °C 0.2 mm
 Hinweis zur Datenqualität
∅ Temperatur

2.9 °C

Abweichung vom Mittel

+0.9 °C

Niederschlag

140.6 mm

Abweichung vom Mittel

113 %

15.4 °C

Lufttemperatur
10.01.2015

1040 hPa

Luftdruck
18.02.2015

38.5 km/h

Windböen
14.01.2015

140.6 mm

Niederschlag
 

-11.4 °C

Lufttemperatur
29.12.2014

-10.8 °C

Bodentemperatur 5cm
29.12.2014

973 hPa

Luftdruck
30.01.2015
 Hinweis zur Datenqualität